Location: Montreal
(45.5000°N, 73.5833°W)
Time: 02:30:38
(UTC-04:00)

Tiangong 2 - Pass Details

Date: 10 October 2017
Orbit: 388 x 391 km, 42.8° (Epoch: 21 October)

Event Time Altitude Azimuth Distance (km) Brightness Sun altitude
Exits shadow 05:33:41 19° 194° (SSW) 999 2.9 -16.7°
Maximum altitude 05:34:57 25° 158° (SSE) 844 2.9 -16.4°
Drops below altitude 10° 05:37:38 10° 101° (ESE) 1,422 5.1 -16.0°
Sets 05:39:56 0° 88° (E) 2,281 6.9 -15.6°
